Location: T�bingen+AIT
(48.5342°N, 9.0700°E)
Time: 02:55:38
(UTC+01:00)

CZ-4B DEB - Pass Details

Date: 14 September 2017
Orbit: 466 x 475 km, 97.5° (Epoch: 20 November)

Event Time Altitude Azimuth Distance (km) Brightness Sun altitude
Exits shadow 21:18:42 33° 154° (SSE) 814 5.3 -16.8°
Maximum altitude 21:20:09 75° 75° (ENE) 494 4.4 -17.0°
Drops below altitude 10° 21:23:41 10° 350° (N) 1,650 7.7 -17.5°
Sets 21:25:45 0° 349° (N) 2,536 8.8 -17.8°
